Powrót do katalogu

STARLINK-1333

AktywnyŁącznośćVLEO
NORAD 45580·PAYLOAD·🇺🇸 United States

Wystrzelony Apr 22, 2020 z Cape Canaveral Space Force Station

Loading…

Następne Przeloty (najbliższe 24 godziny)

TLE

ŚwieżeSource: CelesTrak SupGP

Epoka: Sep 15, 2026, 01:19 UTC

1 45580C 20025BB  26258.05534722  .00049917  00000+0  10716-2 0  2586
2 45580  53.1521 270.3863 0003658  56.3646   8.8792 15.44087357    11

Śledź STARLINK-1333 w czasie rzeczywistym z AllMySat

Download on the App Store